This demonstration page uses our WeatherBlox Daily Observations layout. Learn more.

Left ArrowRight Arrow

44.89941, -97.11507

Hourly Observations for July 19, 2020

Temp ( °F °C ) Dew Point ( °F °C ) Humidity (%) Winds ( mph kmh ) Pressure ( in mb ) Visibility ( mi km ) Precip ( " mm )
12:53 am 00:53 Clear 67 19.4 61 16.1 81 81 W 6 9 29.87 1011 10 16 0.00 0.00
1:53 am 01:53 Clear 68 20 61 16.1 78 78 NW 9 15 29.88 1012 10 16 0.00 0.00
2:53 am 02:53 Clear 67 19.4 60 15.6 79 79 WNW 9 15 29.91 1013 10 16 0.00 0.00
3:53 am 03:53 Clear 66 18.9 60 15.6 81 81 NW 10 17 29.91 1013 10 16 0.00 0.00
4:53 am 04:53 Clear 65 18.3 59 15 81 81 NW 10 17 29.90 1013 10 16 0.00 0.00
5:53 am 05:53 Clear 65 18.3 58 14.4 78 78 NW 10 17 29.91 1013 10 16 0.00 0.00
6:53 am 06:53 Sunny 65 18.3 59 15 81 81 W 7 11 29.92 1013 10 16 0.00 0.00
7:53 am 07:53 Sunny 69 20.6 59 15 70 70 W 8 13 29.93 1014 10 16 0.00 0.00
8:53 am 08:53 Sunny 72 22.2 60 15.6 66 66 W 14 22 29.94 1014 10 16 0.00 0.00
9:53 am 09:53 Sunny 75 23.9 58 14.4 55 55 W 14 22 29.94 1014 10 16 0.00 0.00
10:53 am 10:53 Sunny 76 24.4 59 15 56 56 W 16 26 29.96 1015 10 16 0.00 0.00
11:53 am 11:53 Sunny 77 25 60 15.6 56 56 W 18 30 29.96 1015 10 16 0.00 0.00
12:53 pm 12:53 Sunny 79 26.1 56 13.3 45 45 WNW 20 31 29.94 1014 10 16 0.00 0.00
1:53 pm 13:53 Sunny 80 26.7 52 11.1 38 38 NW 22 35 29.94 1014 10 16 0.00 0.00
2:53 pm 14:53 Sunny 81 27.2 53 11.7 38 38 NW 17 28 29.93 1014 10 16 0.00 0.00
3:53 pm 15:53 Sunny 81 27.2 52 11.1 37 37 NW 16 26 29.93 1014 10 16 0.00 0.00
4:53 pm 16:53 Sunny 82 27.8 54 12.2 38 38 NNW 17 28 29.94 1014 10 16 0.00 0.00
5:53 pm 17:53 Sunny 81 27.2 54 12.2 39 39 NW 14 22 29.95 1014 10 16 0.00 0.00
6:53 pm 18:53 Sunny 77 25 56 13.3 48 48 NNW 8 13 29.96 1014 10 16 0.00 0.00
7:53 pm 19:53 Sunny 73 22.8 58 14.4 59 59 N 6 9 29.95 1014 10 16 0.00 0.00
8:53 pm 20:53 Sunny 71 21.7 58 14.4 63 63 NE 3 6 29.94 1014 10 16 0.00 0.00
9:53 pm 21:53 Clear 69 20.6 57 13.9 66 66 Calm 29.96 1015 10 16 0.00 0.00
10:53 pm 22:53 Clear 67 19.4 56 13.3 68 68 S 3 6 29.98 1015 10 16 0.00 0.00
11:53 pm 23:53 Clear 66 18.9 59 15 78 78 SSE 3 6 29.99 1016 10 16 0.00 0.00

Powered by AerisWeather